CW7693 Weather Reports


time (UTC)temp
C
wind
direction
speed
KPH
gust
KPH
rain 1hr
cm
rain 24hr
cm
rain mn
cm
humidity
%
barometer
mb
20260904182306 26 140 4.8 19.3 0.00 0.00 0.00 39 1017.6
20260904181803 26 246 1.6 19.3 0.00 0.00 0.00 37 1017.6
20260904181306 27 160 1.6 9.7 0.00 0.00 0.00 36 1017.4
20260904180304 27 225 3.2 19.3 0.00 0.00 0.00 35 1017.3
20260904175803 27 238 8.0 19.3 0.00 0.00 0.00 35 1017.3
20260904174803 27 0 6.4 12.9 0.00 0.00 0.00 35 1017.3
20260904173303 27 236 9.7 19.3 0.00 0.00 0.00 35 1017.3
20260904172804 27 257 4.8 12.9 0.00 0.00 0.00 37 1017.2
20260904171803 28 251 3.2 9.7 0.00 0.00 0.00 35 1017.3
20260904171303 28 271 3.2 20.9 0.00 0.00 0.00 35 1017.3
20260904170804 28 223 8.0 20.9 0.00 0.00 0.00 34 1017.1
20260904170304 28 174 8.0 14.5 0.00 0.00 0.00 33 1017.1
20260904165804 28 249 4.8 12.9 0.00 0.00 0.00 34 1017.0
20260904165305 28 168 4.8 19.3 0.00 0.00 0.00 34 1017.0
20260904164303 28 223 4.8 20.9 0.00 0.00 0.00 34 1017.1
20260904163804 28 235 9.7 20.9 0.00 0.00 0.00 33 1017.1
20260904163303 29 230 9.7 20.9 0.00 0.00 0.00 34 1017.1
20260904162804 29 277 8.0 20.9 0.00 0.00 0.00 34 1017.1
20260904162306 29 213 9.7 19.3 0.00 0.00 0.00 33 1017.1
20260904161803 29 268 11.3 19.3 0.00 0.00 0.00 32 1017.1
20260904161303 30 249 4.8 19.3 0.00 0.00 0.00 32 1017.1
20260904160303 30 216 8.0 19.3 0.00 0.00 0.00 32 1017.0
20260904155803 30 221 9.7 29.0 0.00 0.00 0.00 32 1017.0
20260904155306 30 264 9.7 29.0 0.00 0.00 0.00 32 1017.2
20260904154304 30 257 11.3 24.1 0.00 0.00 0.00 32 1017.0
20260904153804 30 266 9.7 24.1 0.00 0.00 0.00 32 1017.1
20260904153303 30 298 11.3 24.1 0.00 0.00 0.00 32 1017.0
20260904152803 30 249 8.0 24.1 0.00 0.00 0.00 31 1017.0
20260904152306 30 255 11.3 22.5 0.00 0.00 0.00 31 1017.1
20260904151804 30 273 9.7 24.1 0.00 0.00 0.00 31 1017.1
20260904151304 30 263 14.5 24.1 0.00 0.00 0.00 30 1017.2
20260904150303 30 296 11.3 22.5 0.00 0.00 0.00 30 1017.1
20260904145804 30 291 11.3 22.5 0.00 0.00 0.00 30 1017.3
20260904143803 30 214 9.7 27.4 0.00 0.00 0.00 30 1017.4
20260904142803 31 247 12.9 22.5 0.00 0.00 0.00 30 1017.4
20260904142306 30 250 6.4 22.5 0.00 0.00 0.00 31 1017.5
20260904141303 30 279 11.3 22.5 0.00 0.00 0.00 31 1017.5
20260904140803 31 222 8.0 19.3 0.00 0.00 0.00 31 1017.5
20260904140304 31 251 8.0 19.3 0.00 0.00 0.00 31 1017.7
20260904135804 31 274 11.3 19.3 0.00 0.00 0.00 30 1017.6
20260904135306 31 213 8.0 16.1 0.00 0.00 0.00 30 1017.6
20260904134804 31 222 8.0 16.1 0.00 0.00 0.00 30 1017.5
20260904133803 31 278 6.4 19.3 0.00 0.00 0.00 30 1017.6
20260904132804 30 276 14.5 22.5 0.00 0.00 0.00 30 1017.7
20260904132306 31 275 8.0 22.5 0.00 0.00 0.00 30 1017.6
20260904131803 31 316 12.9 19.3 0.00 0.00 0.00 29 1017.7
20260904130804 31 244 4.8 16.1 0.00 0.00 0.00 29 1017.7
20260904125804 31 251 4.8 12.9 0.00 0.00 0.00 29 1017.9
20260904125305 31 245 4.8 12.9 0.00 0.00 0.00 29 1018.0
20260904124803 31 291 6.4 14.5 0.00 0.00 0.00 29 1018.1
20260904123804 31 188 4.8 19.3 0.00 0.00 0.00 29 1018.2
20260904123304 31 256 8.0 20.9 0.00 0.00 0.00 29 1018.3
20260904122804 31 176 9.7 20.9 0.00 0.00 0.00 29 1018.4
20260904122306 31 226 6.4 19.3 0.00 0.00 0.00 30 1018.4
20260904121803 30 213 11.3 19.3 0.00 0.00 0.00 30 1018.4
20260904121303 30 269 9.7 16.1 0.00 0.00 0.00 31 1018.5
20260904120803 30 269 9.7 19.3 0.00 0.00 0.00 31 1018.6
20260904120304 30 282 4.8 19.3 0.00 0.00 0.00 34 1018.5
20260904115803 30 295 8.0 19.3 0.00 0.00 0.00 34 1018.6
20260904115306 30 300 6.4 14.5 0.00 0.00 0.00 34 1018.6
20260904113804 29 297 8.0 12.9 0.00 0.00 0.00 36 1018.8
20260904112803 29 310 4.8 9.7 0.00 0.00 0.00 36 1018.9
20260904112306 29 20 3.2 4.8 0.00 0.00 0.00 36 1019.0
20260904111804 29 309 3.2 4.8 0.00 0.00 0.00 36 1019.1
20260904111303 28 140 1.6 4.8 0.00 0.00 0.00 37 1019.2
20260904110304 28 129 3.2 9.7 0.00 0.00 0.00 38 1019.4
20260904105306 28 142 3.2 4.8 0.00 0.00 0.00 38 1019.6
20260904104803 27 163 1.6 4.8 0.00 0.00 0.00 38 1019.6
20260904104304 27 171 1.6 4.8 0.00 0.00 0.00 39 1019.8
20260904103804 27 240 3.2 8.0 0.00 0.00 0.00 40 1020.0
20260904103304 26 295 3.2 12.9 0.00 0.00 0.00 40 1019.9
20260904102803 27 28 4.8 12.9 0.00 0.00 0.00 41 1020.0
20260904101804 26 254 3.2 4.8 0.00 0.00 0.00 43 1020.3
20260904100804 26 5 3.2 4.8 0.00 0.00 0.00 43 1020.5
20260904095804 26 257 1.6 4.8 0.00 0.00 0.00 45 1020.6
20260904095306 25 142 1.6 4.8 0.00 0.00 0.00 46 1020.8
20260904094803 25 325 3.2 4.8 0.00 0.00 0.00 48 1020.8
20260904094303 25 269 1.6 8.0 0.00 0.00 0.00 48 1020.9
20260904093803 24 285 3.2 8.0 0.00 0.00 0.00 48 1021.1
20260904093303 24 344 1.6 8.0 0.00 0.00 0.00 49 1021.1
20260904092803 24 339 3.2 8.0 0.00 0.00 0.00 48 1021.1
20260904092306 24 322 1.6 4.8 0.00 0.00 0.00 48 1021.2
20260904091804 24 285 3.2 4.8 0.00 0.00 0.00 46 1021.3
20260904091304 24 321 3.2 4.8 0.00 0.00 0.00 46 1021.4
20260904090804 24 350 1.6 3.2 0.00 0.00 0.00 47 1021.3
20260904090304 24 357 1.6 4.8 0.00 0.00 0.00 48 1021.3
20260904085804 23 113 1.6 4.8 0.00 0.00 0.00 49 1021.3
20260904084804 23 5 0.0 4.8 0.00 0.00 0.00 51 1021.4
20260904083804 22 222 1.6 4.8 0.00 0.00 0.00 53 1021.4
20260904083304 22 142 0.0 4.8 0.00 0.00 0.00 55 1021.4
20260904082803 22 143 0.0 4.8 0.00 0.00 0.00 56 1021.4
20260904080803 20 161 1.6 4.8 0.00 0.00 0.00 60 1021.5
20260904080303 20 161 1.6 4.8 0.00 0.00 0.00 61 1021.5
20260904075306 19 160 0.0 4.8 0.00 0.00 0.00 64 1021.8
20260904074803 18 141 3.2 4.8 0.00 0.00 0.00 65 1021.8
20260904072804 16 152 3.2 4.8 0.00 0.00 0.00 69 1021.8
20260904072306 16 2 4.8 4.8 0.00 0.00 0.00 71 1021.8
20260904071803 16 155 3.2 8.0 0.00 0.00 0.00 73 1021.8
20260904071303 16 155 4.8 8.0 0.00 0.00 0.00 75 1021.9
20260904070803 15 154 4.8 4.8 0.00 0.00 0.00 76 1021.9
20260904070304 15 143 4.8 4.8 0.00 0.00 0.00 76 1022.1
20260904065804 15 154 3.2 4.8 0.00 0.00 0.00 76 1022.1
20260904065306 15 154 3.2 4.8 0.00 0.00 0.00 77 1022.1
20260904063804 14 0 3.2 4.8 0.00 0.00 0.00 78 1022.1
20260904062804 13 0 3.2 8.0 0.00 0.00 0.00 79 1022.0
20260904061804 13 0 4.8 8.0 0.00 0.00 0.00 79 1022.1
20260904055804 13 0 3.2 4.8 0.00 0.00 0.00 81 1022.1
20260904053805 12 0 4.8 9.7 0.00 0.00 0.00 83 1022.4
20260904053304 12 0 4.8 9.7 0.00 0.00 0.00 82 1022.5
20260904052306 12 0 3.2 4.8 0.00 0.00 0.00 82 1022.4
20260904051804 12 0 1.6 4.8 0.00 0.00 0.00 82 1022.4
20260904051304 12 0 3.2 4.8 0.00 0.00 0.00 83 1022.4
20260904050804 12 1 3.2 4.8 0.00 0.00 0.00 83 1022.4
20260904050304 12 0 1.6 8.0 0.00 0.00 0.00 83 1022.5
20260904045804 12 0 4.8 8.0 0.00 0.00 0.00 83 1022.5
20260904044803 12 0 0.0 0.0 0.00 0.00 0.00 83 1022.5
20260904044303 12 0 0.0 0.0 0.00 0.00 0.00 83 1022.5
20260904043804 12 0 0.0 0.0 0.00 0.00 0.00 84 1022.5
20260904043303 12 0 0.0 0.0 0.00 0.00 0.00 84 1022.6
20260904042803 12 0 0.0 0.0 0.00 0.00 0.00 84 1022.7
20260904042306 12 0 0.0 0.0 0.00 0.00 0.00 84 1022.7
20260904041804 12 0 0.0 0.0 0.00 0.00 0.00 84 1022.5
20260904041304 12 0 0.0 0.0 0.00 0.00 0.00 84 1022.6
20260904040803 12 0 0.0 0.0 0.00 0.00 0.00 83 1022.7
20260904040304 12 1 0.0 1.6 0.00 0.00 0.00 83 1022.7
20260904035306 12 0 1.6 4.8 0.00 0.00 0.00 83 1022.7
20260904034803 12 0 0.0 3.2 0.00 0.00 0.00 83 1022.8
20260904034303 12 0 0.0 0.0 0.00 0.00 0.00 82 1022.8
20260904033803 12 0 0.0 0.0 0.00 0.00 0.00 82 1022.8
20260904032803 13 0 0.0 0.0 0.00 0.00 0.00 82 1022.9
20260904031803 13 2 0.0 0.0 0.00 0.00 0.00 81 1023.0
20260904030804 13 0 0.0 0.0 0.00 0.00 0.00 80 1023.0
20260904030304 13 0 0.0 0.0 0.00 0.00 0.00 79 1022.9
20260904025803 13 0 0.0 0.0 0.00 0.00 0.00 79 1022.9
20260904025306 13 0 0.0 0.0 0.00 0.00 0.00 78 1022.9
20260904024304 13 0 0.0 0.0 0.00 0.00 0.00 78 1023.1
20260904023804 13 0 0.0 0.0 0.00 0.00 0.00 78 1023.1
20260904023304 13 0 0.0 0.0 0.00 0.00 0.00 78 1023.2
20260904022804 14 0 0.0 1.6 0.00 0.00 0.00 78 1023.2
20260904022305 14 0 0.0 1.6 0.00 0.00 0.00 77 1023.2
20260904021803 14 0 0.0 3.2 0.00 0.00 0.00 76 1023.2
20260904015803 14 0 0.0 0.0 0.00 0.00 0.00 77 1023.5
20260904014804 14 0 0.0 0.0 0.00 0.00 0.00 77 1023.5
20260904013303 15 0 1.6 3.2 0.00 0.00 0.00 75 1023.6
20260904012803 15 0 0.0 0.0 0.00 0.00 0.00 75 1023.7
20260904012306 15 0 0.0 3.2 0.00 0.00 0.00 75 1023.6
20260904011803 15 0 0.0 4.8 0.00 0.00 0.00 75 1023.6
20260904011303 15 0 1.6 4.8 0.00 0.00 0.00 75 1023.7
20260904010804 15 0 0.0 0.0 0.00 0.00 0.00 75 1023.7
20260904010304 15 0 0.0 3.2 0.00 0.00 0.00 75 1023.7
20260904005803 15 0 0.0 4.8 0.00 0.00 0.00 75 1023.6
20260904005306 15 0 3.2 4.8 0.00 0.00 0.00 75 1023.5
20260904003303 15 0 0.0 3.2 0.00 0.00 0.00 75 1023.7
20260904002306 15 0 1.6 3.2 0.00 0.00 0.00 74 1023.8
20260904001803 15 0 0.0 3.2 0.00 0.00 0.00 74 1023.7
20260903235803 15 0 0.0 4.8 0.00 0.00 0.00 73 1023.9
20260903235305 15 0 0.0 4.8 0.00 0.00 0.00 73 1023.9
20260903234803 15 0 3.2 4.8 0.00 0.00 0.00 73 1024.0
20260903234303 15 0 1.6 4.8 0.00 0.00 0.00 73 1024.0
20260903233303 15 0 0.0 3.2 0.00 0.00 0.00 73 1024.1
20260903232306 16 0 0.0 8.0 0.00 0.00 0.00 74 1024.1
20260903231803 16 0 4.8 8.0 0.00 0.00 0.00 74 1024.1
20260903231303 16 0 3.2 4.8 0.00 0.00 0.00 74 1024.2
20260903230803 16 0 0.0 3.2 0.00 0.00 0.00 74 1024.1
20260903230303 16 0 0.0 0.0 0.00 0.00 0.00 74 1024.2
20260903225803 16 0 0.0 3.2 0.00 0.00 0.00 75 1024.3
20260903225306 16 0 0.0 4.8 0.00 0.00 0.00 74 1024.2
20260903224303 16 0 0.0 3.2 0.00 0.00 0.00 73 1024.3
20260903223804 16 0 0.0 3.2 0.00 0.00 0.00 73 1024.4
20260903221803 16 0 0.0 3.2 0.00 0.00 0.00 73 1024.3
20260903221303 16 0 0.0 4.8 0.00 0.00 0.00 73 1024.4
20260903220803 16 0 0.0 4.8 0.00 0.00 0.00 73 1024.4
20260903220309 16 0 0.0 1.6 0.00 0.00 0.00 73 1024.3
20260903214804 17 0 1.6 4.8 0.00 0.00 0.00 72 1024.2
20260903214304 17 0 1.6 4.8 0.00 0.00 0.00 71 1024.1
20260903212803 17 0 1.6 3.2 0.00 0.00 0.00 70 1024.0
20260903211803 17 0 1.6 3.2 0.00 0.00 0.00 70 1024.1
20260903210804 17 0 0.0 3.2 0.00 0.00 0.00 69 1024.2
20260903210303 17 0 0.0 4.8 0.00 0.00 0.00 69 1024.1
20260903205306 18 0 1.6 4.8 0.00 0.00 0.00 68 1024.1
20260903203803 18 0 3.2 11.3 0.00 0.00 0.00 67 1024.0
20260903200804 19 0 0.0 3.2 0.00 0.00 0.00 66 1023.5
20260903200304 19 0 0.0 4.8 0.00 0.00 0.00 65 1023.5
20260903195804 19 0 0.0 4.8 0.00 0.00 0.00 65 1023.5
20260903194804 19 0 1.6 3.2 0.00 0.00 0.00 64 1023.4
20260903193304 20 0 3.2 4.8 0.00 0.00 0.00 63 1023.2
20260903192803 20 0 3.2 8.0 0.00 0.00 0.00 62 1023.2
20260903192306 20 0 4.8 8.0 0.00 0.00 0.00 61 1023.4
20260903191804 20 0 1.6 4.8 0.00 0.00 0.00 60 1023.4
20260903190303 20 0 0.0 4.8 0.00 0.00 0.00 57 1023.2
20260903185803 21 0 1.6 4.8 0.00 0.00 0.00 57 1023.1
20260903184803 21 0 1.6 4.8 0.00 0.00 0.00 56 1023.2
20260903184303 21 0 3.2 4.8 0.00 0.00 0.00 56 1023.1
20260903183803 21 0 0.0 4.8 0.00 0.00 0.00 55 1023.1
20260903183303 21 0 4.8 4.8 0.00 0.00 0.00 54 1023.0
20260903182803 21 0 1.6 4.8 0.00 0.00 0.00 54 1022.9